VJC526 VVDN-VVNB

Flight info

Callsign VJC526
Flight time 1h 1m
Altitude 31000
Route VIDEN Q2 BUVAN/K0833F330 Q2 BISON
Aircraft A320/M-SDE3FGHIRWY/LB1

Departure

Time 2026-04-29 14:50
Airport Da Nang International Airport (VVDN)

Arrival

Time 2026-04-29 15:51
Airport Noi Bai International Airport (VVNB)
Time Latitude Longitude Altitude Speed Heading
2026-04-29 14:25 16.05227 108.20213 5 ft 0 kts 82°
2026-04-29 14:35 16.05225 108.20202 30 ft 4 kts 82°
2026-04-29 14:35 16.05222 108.20174 31 ft 4 kts 82°
2026-04-29 14:35 16.05221 108.20167 30 ft 4 kts 82°
2026-04-29 14:36 16.05218 108.20145 32 ft 4 kts 82°
2026-04-29 14:36 16.05214 108.20118 32 ft 4 kts 82°
2026-04-29 14:36 16.05211 108.20092 33 ft 4 kts 85°
2026-04-29 14:36 16.05214 108.20070 33 ft 4 kts 136°
2026-04-29 14:37 16.05236 108.20058 33 ft 4 kts 168°
2026-04-29 14:37 16.05256 108.20055 31 ft 0 kts 172°
2026-04-29 14:43 16.05244 108.20056 32 ft 6 kts 172°
2026-04-29 14:43 16.05178 108.20066 33 ft 13 kts 172°
2026-04-29 14:43 16.05072 108.20081 32 ft 16 kts 171°
2026-04-29 14:44 16.04967 108.20097 32 ft 15 kts 172°
2026-04-29 14:44 16.04873 108.20111 32 ft 13 kts 172°
2026-04-29 14:44 16.04792 108.20122 32 ft 11 kts 172°
2026-04-29 14:44 16.04724 108.20132 32 ft 9 kts 171°
2026-04-29 14:45 16.04663 108.20141 32 ft 10 kts 172°
2026-04-29 14:45 16.04579 108.20153 32 ft 14 kts 173°
2026-04-29 14:45 16.04467 108.20169 32 ft 18 kts 172°
2026-04-29 14:45 16.04332 108.20189 32 ft 21 kts 172°
2026-04-29 14:46 16.04174 108.20212 33 ft 24 kts 173°
2026-04-29 14:46 16.04001 108.20231 33 ft 26 kts 174°
2026-04-29 14:46 16.03816 108.20256 33 ft 27 kts 167°
2026-04-29 14:46 16.03626 108.20295 33 ft 28 kts 171°
2026-04-29 14:47 16.03432 108.20320 33 ft 28 kts 172°
2026-04-29 14:47 16.03235 108.20348 31 ft 28 kts 172°
2026-04-29 14:47 16.03075 108.20372 32 ft 24 kts 172°
2026-04-29 14:47 16.02932 108.20332 30 ft 9 kts 240°
2026-04-29 14:48 16.02931 108.20329 31 ft 0 kts 242°
2026-04-29 14:48 16.02924 108.20310 31 ft 7 kts 252°
2026-04-29 14:49 16.02938 108.20250 31 ft 8 kts 333°
2026-04-29 14:49 16.02962 108.20245 31 ft 3 kts 351°
2026-04-29 14:49 16.03067 108.20229 31 ft 40 kts 352°
2026-04-29 14:49 16.03580 108.20156 34 ft 106 kts 352°
2026-04-29 14:50 16.04488 108.20024 33 ft 158 kts 351°
2026-04-29 14:50 16.05618 108.19828 562 ft 160 kts 349°
2026-04-29 14:50 16.06743 108.19712 1091 ft 170 kts 358°
2026-04-29 14:50 16.08002 108.19692 1399 ft 193 kts 358°
2026-04-29 14:51 16.09422 108.19685 1762 ft 214 kts 358°
2026-04-29 14:51 16.10984 108.19675 2162 ft 236 kts 358°
2026-04-29 14:51 16.12703 108.19657 2672 ft 255 kts 358°
2026-04-29 14:51 16.14502 108.19634 3481 ft 260 kts 359°
2026-04-29 14:52 16.16324 108.19606 4341 ft 264 kts 359°
2026-04-29 14:52 16.18146 108.19575 5148 ft 267 kts 359°
2026-04-29 14:52 16.20015 108.19542 5933 ft 271 kts 359°
2026-04-29 14:52 16.21920 108.19505 6652 ft 276 kts 359°
2026-04-29 14:53 16.23856 108.19464 7356 ft 281 kts 359°
2026-04-29 14:53 16.25824 108.19422 8068 ft 285 kts 358°
2026-04-29 14:53 16.27816 108.19378 8787 ft 288 kts 358°
2026-04-29 14:53 16.29839 108.19333 9493 ft 292 kts 358°
2026-04-29 14:54 16.31884 108.19288 10171 ft 296 kts 358°
2026-04-29 14:54 16.34008 108.19126 10391 ft 317 kts 348°
2026-04-29 14:54 16.36245 108.18623 10515 ft 340 kts 346°
2026-04-29 14:54 16.38599 108.18082 10913 ft 351 kts 346°
2026-04-29 14:55 16.41000 108.17532 11492 ft 355 kts 346°
2026-04-29 14:55 16.43428 108.16979 12107 ft 358 kts 346°
2026-04-29 14:55 16.45871 108.16424 12732 ft 361 kts 346°
2026-04-29 14:55 16.48342 108.15862 13320 ft 365 kts 346°
2026-04-29 14:56 16.50831 108.15297 13897 ft 368 kts 346°
2026-04-29 14:56 16.53347 108.14729 14409 ft 371 kts 346°
2026-04-29 14:56 16.55878 108.14139 14904 ft 374 kts 342°
2026-04-29 14:56 16.58204 108.12963 15378 ft 373 kts 319°
2026-04-29 14:57 16.59837 108.10931 15847 ft 373 kts 297°
2026-04-29 14:57 16.60958 108.08488 16354 ft 375 kts 293°
2026-04-29 14:57 16.62041 108.06001 16860 ft 378 kts 293°
2026-04-29 14:57 16.63116 108.03493 17366 ft 380 kts 293°
2026-04-29 14:58 16.64198 108.00966 17867 ft 383 kts 293°
2026-04-29 14:58 16.65300 107.98419 18353 ft 386 kts 293°
2026-04-29 14:58 16.66415 107.95858 18795 ft 389 kts 293°
2026-04-29 14:58 16.67538 107.93283 19236 ft 391 kts 293°
2026-04-29 14:59 16.68669 107.90696 19682 ft 393 kts 293°
2026-04-29 14:59 16.69807 107.88095 20131 ft 396 kts 293°
2026-04-29 14:59 16.70955 107.85474 20580 ft 398 kts 293°
2026-04-29 14:59 16.72097 107.82863 21020 ft 400 kts 293°
2026-04-29 15:00 16.73255 107.80214 21457 ft 403 kts 292°
2026-04-29 15:00 16.74419 107.77551 21879 ft 405 kts 292°
2026-04-29 15:00 16.75589 107.74872 22294 ft 407 kts 292°
2026-04-29 15:00 16.76766 107.72174 22710 ft 409 kts 292°
2026-04-29 15:01 16.77947 107.69466 23117 ft 411 kts 292°
2026-04-29 15:01 16.79136 107.66740 23508 ft 413 kts 292°
2026-04-29 15:01 16.80328 107.64003 23842 ft 415 kts 292°
2026-04-29 15:01 16.81526 107.61248 24164 ft 417 kts 292°
2026-04-29 15:02 16.82724 107.58484 24478 ft 419 kts 292°
2026-04-29 15:02 16.83932 107.55706 24793 ft 421 kts 292°
2026-04-29 15:02 16.85144 107.52921 25091 ft 422 kts 292°
2026-04-29 15:02 16.86363 107.50119 25391 ft 424 kts 292°
2026-04-29 15:03 16.87585 107.47309 25683 ft 426 kts 292°
2026-04-29 15:03 16.88969 107.44564 25963 ft 430 kts 303°
2026-04-29 15:03 16.91022 107.42281 26234 ft 436 kts 320°
2026-04-29 15:03 16.93627 107.40686 26511 ft 442 kts 332°
2026-04-29 15:04 16.96448 107.39300 26791 ft 444 kts 332°
2026-04-29 15:04 16.99246 107.37926 27068 ft 445 kts 332°
2026-04-29 15:04 17.02020 107.36563 27339 ft 447 kts 332°
2026-04-29 15:04 17.04834 107.35174 27606 ft 448 kts 332°
2026-04-29 15:05 17.07651 107.33768 27872 ft 450 kts 332°
2026-04-29 15:05 17.10474 107.32349 28130 ft 451 kts 332°
2026-04-29 15:05 17.13309 107.30920 28384 ft 453 kts 332°
2026-04-29 15:05 17.16153 107.29484 28625 ft 454 kts 332°
2026-04-29 15:06 17.19000 107.28044 28859 ft 455 kts 332°
2026-04-29 15:06 17.21854 107.26598 29090 ft 457 kts 332°
2026-04-29 15:06 17.24718 107.25148 29310 ft 458 kts 332°
2026-04-29 15:06 17.27597 107.23691 29521 ft 460 kts 332°
2026-04-29 15:07 17.30480 107.22235 29732 ft 461 kts 332°
2026-04-29 15:07 17.33374 107.20779 29931 ft 462 kts 332°
2026-04-29 15:07 17.36277 107.19319 30117 ft 464 kts 332°
2026-04-29 15:07 17.39188 107.17852 30312 ft 464 kts 332°
2026-04-29 15:08 17.42091 107.16385 30547 ft 463 kts 332°
2026-04-29 15:08 17.44985 107.14920 30795 ft 462 kts 332°
2026-04-29 15:08 17.47874 107.13458 30980 ft 461 kts 332°
2026-04-29 15:09 17.53568 107.10575 31035 ft 449 kts 331°
2026-04-29 15:09 17.59186 107.07735 31037 ft 447 kts 331°
2026-04-29 15:10 17.64794 107.04903 31040 ft 447 kts 331°
2026-04-29 15:10 17.70398 107.02066 31041 ft 447 kts 331°
2026-04-29 15:11 17.75997 106.99226 31044 ft 447 kts 331°
2026-04-29 15:11 17.81561 106.96396 31043 ft 447 kts 331°
2026-04-29 15:12 17.87161 106.93552 31041 ft 447 kts 331°
2026-04-29 15:12 17.92763 106.90706 31048 ft 447 kts 331°
2026-04-29 15:13 17.98378 106.87879 31044 ft 447 kts 331°
2026-04-29 15:13 18.04014 106.85051 31042 ft 447 kts 331°
2026-04-29 15:14 18.09631 106.82221 31044 ft 448 kts 331°
2026-04-29 15:14 18.15248 106.79382 31045 ft 448 kts 331°
2026-04-29 15:15 18.20830 106.76556 31049 ft 447 kts 331°
2026-04-29 15:15 18.26447 106.73721 31054 ft 447 kts 331°
2026-04-29 15:16 18.32059 106.70879 31053 ft 447 kts 331°
2026-04-29 15:16 18.37666 106.68034 31051 ft 448 kts 331°
2026-04-29 15:17 18.42438 106.65622 31050 ft 448 kts 331°
2026-04-29 15:18 18.45714 106.63964 31051 ft 448 kts 331°
2026-04-29 15:18 18.46918 106.63355 31050 ft 448 kts 331°
2026-04-29 15:19 18.47202 106.63211 31052 ft 448 kts 331°
2026-04-29 15:19 18.51632 106.60944 31051 ft 448 kts 331°
2026-04-29 15:20 18.57214 106.58113 31051 ft 448 kts 331°
2026-04-29 15:20 18.61609 106.55902 31051 ft 448 kts 331°
2026-04-29 15:21 18.62424 106.55494 31051 ft 448 kts 331°
2026-04-29 15:21 18.67114 106.53146 31051 ft 448 kts 331°
2026-04-29 15:22 18.73690 106.49820 31051 ft 448 kts 331°
2026-04-29 15:22 18.78364 106.47450 31050 ft 449 kts 331°
2026-04-29 15:23 18.83995 106.44603 31054 ft 449 kts 331°
2026-04-29 15:23 18.89631 106.41756 31054 ft 449 kts 331°
2026-04-29 15:24 18.95268 106.38911 31055 ft 449 kts 331°
2026-04-29 15:24 19.00910 106.36071 31056 ft 449 kts 331°
2026-04-29 15:25 19.06513 106.33250 31053 ft 449 kts 331°
2026-04-29 15:25 19.12147 106.30405 31055 ft 449 kts 331°
2026-04-29 15:26 19.17782 106.27558 31054 ft 449 kts 331°
2026-04-29 15:26 19.23427 106.24714 31059 ft 449 kts 331°
2026-04-29 15:27 19.29062 106.21870 31053 ft 449 kts 331°
2026-04-29 15:27 19.34708 106.19015 31054 ft 449 kts 331°
2026-04-29 15:28 19.40345 106.16161 31050 ft 449 kts 331°
2026-04-29 15:28 19.45974 106.13303 31052 ft 449 kts 331°
2026-04-29 15:29 19.51614 106.10444 31059 ft 449 kts 331°
2026-04-29 15:29 19.57258 106.07604 30843 ft 450 kts 331°
2026-04-29 15:30 19.62903 106.04780 30388 ft 447 kts 331°
2026-04-29 15:30 19.65710 106.03373 30162 ft 446 kts 331°
2026-04-29 15:30 19.68505 106.01968 29905 ft 444 kts 331°
2026-04-29 15:30 19.71299 106.00565 29616 ft 441 kts 331°
2026-04-29 15:31 19.74026 105.99197 29045 ft 437 kts 331°
2026-04-29 15:31 19.76762 105.97826 28465 ft 433 kts 331°
2026-04-29 15:31 19.79473 105.96463 27894 ft 430 kts 331°
2026-04-29 15:31 19.82168 105.95107 27322 ft 426 kts 331°
2026-04-29 15:32 19.84838 105.93761 26760 ft 424 kts 331°
2026-04-29 15:32 19.87492 105.92421 26202 ft 421 kts 331°
2026-04-29 15:32 19.90132 105.91088 25654 ft 418 kts 332°
2026-04-29 15:32 19.92759 105.89762 25119 ft 416 kts 332°
2026-04-29 15:33 19.95360 105.88446 24594 ft 413 kts 332°
2026-04-29 15:33 19.97949 105.87140 24083 ft 411 kts 332°
2026-04-29 15:33 20.00533 105.85837 23579 ft 409 kts 332°
2026-04-29 15:33 20.03093 105.84548 23042 ft 405 kts 332°
2026-04-29 15:34 20.05594 105.83290 22581 ft 401 kts 332°
2026-04-29 15:34 20.08102 105.82025 22122 ft 397 kts 332°
2026-04-29 15:34 20.10590 105.80766 21655 ft 394 kts 332°
2026-04-29 15:34 20.13056 105.79518 21200 ft 391 kts 332°
2026-04-29 15:35 20.15499 105.78280 20738 ft 388 kts 331°
2026-04-29 15:35 20.17937 105.77044 20265 ft 386 kts 331°
2026-04-29 15:35 20.20353 105.75818 19790 ft 384 kts 331°
2026-04-29 15:35 20.22764 105.74594 19304 ft 383 kts 331°
2026-04-29 15:36 20.25165 105.73377 18824 ft 382 kts 332°
2026-04-29 15:36 20.27562 105.72166 18332 ft 381 kts 331°
2026-04-29 15:36 20.29954 105.70957 17795 ft 380 kts 331°
2026-04-29 15:36 20.32331 105.69755 17315 ft 377 kts 331°
2026-04-29 15:37 20.34695 105.68559 16824 ft 375 kts 331°
2026-04-29 15:37 20.37044 105.67368 16356 ft 372 kts 331°
2026-04-29 15:37 20.39374 105.66184 15879 ft 370 kts 331°
2026-04-29 15:37 20.41675 105.65039 15406 ft 370 kts 335°
2026-04-29 15:38 20.44150 105.64287 14964 ft 372 kts 348°
2026-04-29 15:38 20.46705 105.64133 14864 ft 365 kts 356°
2026-04-29 15:38 20.49230 105.64117 14714 ft 361 kts 356°
2026-04-29 15:38 20.51733 105.64100 14481 ft 359 kts 356°
2026-04-29 15:39 20.54229 105.64082 14257 ft 357 kts 356°
2026-04-29 15:39 20.56709 105.64064 14027 ft 356 kts 356°
2026-04-29 15:39 20.59186 105.64044 13762 ft 355 kts 356°
2026-04-29 15:39 20.61641 105.64021 13404 ft 352 kts 356°
2026-04-29 15:40 20.64085 105.63996 13056 ft 350 kts 356°
2026-04-29 15:40 20.66514 105.63971 12706 ft 348 kts 356°
2026-04-29 15:40 20.68929 105.63947 12360 ft 346 kts 356°
2026-04-29 15:40 20.71337 105.63926 12016 ft 344 kts 356°
2026-04-29 15:41 20.73722 105.63907 11645 ft 342 kts 356°
2026-04-29 15:41 20.76099 105.63887 11296 ft 339 kts 356°
2026-04-29 15:41 20.78457 105.63864 10944 ft 337 kts 356°
2026-04-29 15:41 20.80799 105.63840 10598 ft 335 kts 356°
2026-04-29 15:42 20.83121 105.63818 10246 ft 333 kts 356°
2026-04-29 15:42 20.85346 105.63800 9913 ft 329 kts 356°
2026-04-29 15:42 20.87650 105.63782 9528 ft 324 kts 356°
2026-04-29 15:42 20.89890 105.63762 9146 ft 320 kts 357°
2026-04-29 15:43 20.92074 105.63742 8775 ft 316 kts 357°
2026-04-29 15:43 20.94257 105.63723 8407 ft 311 kts 357°
2026-04-29 15:43 20.96409 105.63705 8042 ft 307 kts 358°
2026-04-29 15:43 20.98533 105.63687 7683 ft 303 kts 358°
2026-04-29 15:44 21.00625 105.63668 7324 ft 299 kts 358°
2026-04-29 15:44 21.02679 105.63503 6972 ft 294 kts 347°
2026-04-29 15:44 21.04630 105.62911 6616 ft 290 kts 343°
2026-04-29 15:44 21.06548 105.62297 6259 ft 286 kts 344°
2026-04-29 15:45 21.08445 105.61695 5883 ft 282 kts 344°
2026-04-29 15:45 21.10322 105.61101 5510 ft 279 kts 344°
2026-04-29 15:45 21.12167 105.60519 5143 ft 275 kts 345°
2026-04-29 15:45 21.13994 105.59944 4780 ft 272 kts 345°
2026-04-29 15:46 21.15563 105.59449 4452 ft 269 kts 345°
2026-04-29 15:46 21.17369 105.59006 4102 ft 263 kts 359°
2026-04-29 15:46 21.19138 105.59313 3756 ft 257 kts 21°
2026-04-29 15:46 21.20800 105.59981 3421 ft 252 kts 22°
2026-04-29 15:47 21.22400 105.60627 3073 ft 240 kts 22°
2026-04-29 15:47 21.23893 105.61309 2731 ft 227 kts 33°
2026-04-29 15:47 21.25077 105.62369 2452 ft 219 kts 51°
2026-04-29 15:47 21.25843 105.63711 2425 ft 204 kts 68°
2026-04-29 15:48 21.26186 105.65132 2435 ft 197 kts 83°
2026-04-29 15:48 21.26146 105.66577 2395 ft 190 kts 98°
2026-04-29 15:48 21.25797 105.67916 2170 ft 184 kts 105°
2026-04-29 15:48 21.25425 105.69204 1945 ft 176 kts 105°
2026-04-29 15:49 21.25072 105.70428 1718 ft 168 kts 104°
2026-04-29 15:49 21.24743 105.71565 1520 ft 152 kts 105°
2026-04-29 15:49 21.24442 105.72612 1333 ft 144 kts 104°
2026-04-29 15:49 21.24150 105.73625 1144 ft 141 kts 105°
2026-04-29 15:50 21.23864 105.74619 965 ft 139 kts 105°
2026-04-29 15:50 21.23577 105.75612 787 ft 140 kts 106°
2026-04-29 15:50 21.23292 105.76606 604 ft 139 kts 105°
2026-04-29 15:50 21.23005 105.77595 415 ft 139 kts 106°
2026-04-29 15:51 21.22718 105.78583 237 ft 139 kts 106°
2026-04-29 15:51 21.22434 105.79571 55 ft 137 kts 106°
2026-04-29 15:51 21.22195 105.80398 50 ft 92 kts 107°
2026-04-29 15:51 21.22046 105.80915 52 ft 45 kts 107°
2026-04-29 15:52 21.21975 105.81152 51 ft 30 kts 111°
2026-04-29 15:52 21.21879 105.81314 49 ft 18 kts 134°
2026-04-29 15:52 21.21792 105.81402 50 ft 17 kts 135°
2026-04-29 15:52 21.21704 105.81492 50 ft 18 kts 139°
2026-04-29 15:53 21.21598 105.81566 52 ft 18 kts 172°
2026-04-29 15:53 21.21480 105.81533 51 ft 15 kts 196°
2026-04-29 15:53 21.21386 105.81510 48 ft 11 kts 164°
2026-04-29 15:53 21.21353 105.81580 50 ft 11 kts 107°
2026-04-29 15:54 21.21317 105.81637 50 ft 8 kts 169°
2026-04-29 15:54 21.21271 105.81625 50 ft 5 kts 197°
2026-04-29 15:54 21.21241 105.81615 50 ft 4 kts 197°
2026-04-29 15:54 21.21217 105.81607 50 ft 3 kts 195°
2026-04-29 15:55 21.21200 105.81607 47 ft 1 kts 165°
2026-04-29 15:55 21.21195 105.81614 50 ft 2 kts 134°
2026-04-29 15:55 21.21184 105.81639 47 ft 5 kts 108°
2026-04-29 15:55 21.21180 105.81652 50 ft 2 kts 107°
2026-04-29 15:56 21.21180 105.81654 50 ft 0 kts 107°